Temperature
21 19 19 19 19 20 21 21 20 21 22 22 22 21 20 20 20 20 20 20 21 21 21 21 21 21 21 21 21 21 20 20 20 19 19 18 18 18 18 18 18 18 18 18
19 20 21 21 21 21 21 21 21 21 22 22 21 21 19 19 19 19 19 19 19 20 20 20 20 20 20 20 20 20 20 20 20 20 19 19 18 18 18 18 18 18 18 18
21 21 22 22 22 22 22 21 22 22 21 21 21 20 19 18 18 18 18 19 19 19 20 20 20 20 19 20 20 19 19 19 19 19 19 18 18 18 17 17 18 18 18 18
21 22 22 22 22 22 21 22 22 22 20 19 20 18 18 16 17 17 16 17 17 18 18 19 19 19 19 19 19 19 19 19 19 18 18 17 17 17 17 17 17 18 18 18
21 22 22 22 22 23 22 21 21 20 20 19 18 18 17 15 16 16 16 16 17 17 17 17 18 18 18 18 18 19 19 19 19 18 18 17 17 17 17 17 17 17 17 17
21 22 22 22 22 21 21 19 18 15 16 17 18 17 16 16 16 16 15 16 16 17 17 17 17 17 17 17 17 17 18 18 18 18 17 16 16 16 16 16 15 16 16 16
20 21 21 22 22 20 19 17 16 16 15 16 17 16 15 16 16 15 15 15 16 17 17 17 16 16 17 17 16 16 16 16 16 16 16 15 15 15 15 15 15 15 16 16
19 19 21 21 21 20 18 17 16 16 15 15 16 16 15 15 15 15 15 15 16 16 16 16 16 16 16 16 16 15 15 15 15 15 14 14 14 14 14 15 15 15 15 15
18 19 21 20 19 19 18 16 16 14 15 14 14 14 15 14 14 14 14 14 15 16 16 16 16 15 15 15 15 15 14 15 14 14 14 14 14 14 14 14 14 14 14 14
18 19 20 20 19 16 16 14 13 14 15 14 14 14 14 15 14 14 13 14 16 16 16 15 15 15 14 14 14 14 14 14 14 14 13 13 13 13 13 14 14 14 14 14
18 18 19 18 19 19 16 14 12 11 12 13 13 13 14 14 14 13 13 15 16 16 15 15 14 14 14 13 13 13 13 13 13 13 13 13 13 13 13 13 13 14 14 14
16 15 16 17 17 16 16 15 12 14 14 11 11 12 14 13 13 13 14 15 16 15 15 14 14 14 13 13 13 13 13 13 13 13 13 13 13 13 13 13 13 13 14 14
15 15 15 16 15 16 16 14 13 11 11 10 10 13 14 13 13 14 14 15 15 15 14 13 13 13 13 13 13 13 13 13 13 12 12 12 13 13 13 13 13 13 13 13
15 14 15 16 16 16 16 15 12 11 11 10 10 13 14 13 12 13 14 15 15 14 13 13 13 13 12 12 12 12 12 12 12 12 12 12 12 12 12 12 13 12 12 12
15 15 15 15 16 16 16 16 13 12 12 12 12 12 14 13 12 14 15 15 14 14 13 13 12 12 12 12 12 12 12 12 12 12 12 12 12 12 12 12 12 12 12 12
14 16 15 15 16 15 15 16 15 14 13 12 12 13 13 13 14 14 14 14 14 14 13 13 12 12 12 12 12 12 11 11 11 12 12 12 12 12 12 12 12 12 12 12
13 13 13 13 15 16 15 16 16 14 13 13 13 14 13 13 12 14 15 15 15 14 13 13 13 12 12 12 12 11 11 11 11 11 12 12 12 12 11 11 11 11 11 11
11 11 11 12 14 14 15 16 16 15 15 13 13 13 13 13 16 16 16 15 15 14 14 13 13 12 12 12 11 11 11 11 11 11 11 11 11 11 11 11 11 11 11 11
11 11 10 10 12 13 15 16 16 15 15 15 14 14 15 15 13 15 17 16 15 15 14 13 13 12 12 11 11 11 11 11 11 11 11 11 11 11 11 11 11 11 10 10
11 11 11 11 12 13 14 16 17 16 15 15 14 14 14 12 12 14 17 16 16 15 14 13 13 12 11 11 11 11 10 10 11 11 11 11 11 11 11 10 10 10 10 10
13 12 11 11 11 13 14 16 17 15 15 17 17 17 16 13 15 17 17 16 16 15 14 13 12 12 11 11 11 10 10 10 10 10 10 10 10 10 10 10 10 10 10 9
13 12 11 10 11 12 15 16 15 15 17 18 18 18 18 18 18 18 17 16 15 15 14 13 12 12 11 11 10 10 10 10 10 10 10 10 10 10 10 10 9 9 9 9
11 11 11 11 12 14 16 16 18 18 17 18 18 19 18 18 18 18 17 16 15 15 14 13 12 11 11 11 10 10 10 10 10 10 10 10 10 10 9 9 9 9 9 9
11 11 10 10 11 13 16 17 18 18 18 18 18 18 18 18 18 18 17 17 16 15 14 13 12 11 11 11 10 10 10 10 10 10 9 9 9 9 9 9 9 9 9 8
11 12 10 10 11 13 15 17 18 18 18 18 18 18 18 18 18 18 17 17 16 15 14 13 12 12 11 11 11 10 10 10 10 9 9 9 9 9 9 9 9 8 8 8
10 11 11 13 14 13 14 17 17 17 17 17 17 17 18 18 18 18 17 17 17 15 14 13 13 12 12 11 11 10 10 10 10 10 9 9 8 8 8 8 8 8 8 8
Wind_Speed
3 4 3 7 7 6 2 3 6 7 5 3 5 6 9 5 2 4 4 5 6 7 3 1 1 2 3 4 5 6 7 7 7 5 6 5 4 3 3 2 3 3 3 1
6 3 8 6 4 4 3 3 5 6 6 4 4 5 7 8 5 2 1 3 4 5 5 4 4 3 2 2 1 2 3 4 6 6 5 3 3 3 2 2 1 1 2 2
1 5 6 3 3 1 1 2 3 4 5 6 6 8 7 7 10 11 9 4 2 2 3 3 3 3 3 1 0 2 3 3 4 3 2 2 2 2 2 2 1 1 2 2
3 4 5 5 3 3 3 3 3 2 3 4 5 4 5 7 9 12 11 9 7 5 4 3 2 2 2 1 2 4 4 4 3 3 3 3 4 4 4 3 2 1 1 2
4 4 4 3 2 1 2 3 3 2 2 2 4 0 5 6 7 9 10 9 8 7 5 4 3 2 1 1 2 5 6 6 5 5 5 6 4 3 2 2 2 1 1 1
4 3 2 2 1 3 2 5 6 6 5 1 2 1 5 1 3 5 6 7 7 7 6 5 4 3 2 1 0 1 3 3 4 5 5 4 4 5 5 3 3 1 0 1
6 6 4 1 2 6 7 6 5 6 5 5 4 3 7 3 2 3 4 5 4 5 5 5 5 5 4 2 2 2 2 2 2 3 5 5 5 4 5 4 3 2 1 1
2 6 5 3 2 2 2 6 5 3 4 6 6 5 6 4 4 5 5 5 5 5 5 5 5 4 5 4 3 3 3 3 3 4 5 4 5 4 3 3 3 2 2 1
6 5 3 4 4 6 5 3 4 6 1 3 6 7 6 3 5 7 7 7 8 8 7 7 6 6 5 5 4 3 3 3 5 6 5 4 5 4 4 3 3 2 1 1
9 4 3 1 4 7 4 7 5 4 2 5 7 5 5 7 9 9 8 9 10 9 8 8 7 6 5 5 5 2 1 2 3 5 5 5 5 5 5 4 4 3 2 2
6 5 4 4 2 0 3 4 5 4 4 4 5 8 7 9 9 9 10 10 10 10 9 8 7 5 5 4 3 2 0 1 1 2 4 5 5 5 5 4 3 3 3 3
4 5 2 5 4 2 4 6 7 4 4 5 4 8 8 9 9 8 10 10 9 9 8 7 6 5 3 2 2 1 0 1 1 2 3 4 5 5 4 4 4 4 5 5
7 6 2 8 6 2 2 4 4 5 5 6 5 9 5 4 7 8 10 11 10 9 8 6 4 3 2 1 1 2 1 1 0 2 2 3 4 4 4 4 4 5 6 6
7 6 7 8 9 6 5 6 6 7 5 6 10 12 14 12 11 10 9 9 9 8 6 4 2 0 1 1 2 2 2 1 0 2 3 3 4 4 4 5 5 6 6 7
5 5 8 8 8 5 8 9 9 10 10 11 11 11 16 12 9 8 7 7 7 7 5 3 2 2 2 2 1 2 2 1 0 1 2 3 3 4 5 6 6 6 6 6
3 5 5 5 7 8 7 11 10 10 8 10 10 13 14 9 6 7 8 8 8 8 6 5 4 5 5 4 3 2 2 2 0 1 2 2 4 5 5 6 6 7 6 6
3 6 5 6 4 2 8 12 10 8 9 10 12 14 8 6 10 10 10 9 9 9 7 7 7 7 6 5 5 4 3 1 1 2 3 4 5 5 5 6 6 7 5 5
7 6 4 3 2 7 11 5 7 8 10 11 10 8 8 11 8 7 8 9 10 9 8 8 7 7 6 5 4 3 2 2 2 3 3 4 5 6 6 6 6 5 5 5
6 7 5 4 5 8 9 7 7 8 10 8 11 11 8 3 2 7 9 10 11 10 8 7 7 7 6 6 5 3 2 2 3 3 4 5 6 6 6 6 6 5 5 5
5 4 5 4 4 8 11 8 3 4 7 8 9 11 6 6 2 9 8 8 10 9 7 7 6 6 6 6 5 5 4 3 4 4 5 5 6 6 6 6 5 4 5 6
3 1 4 6 8 9 9 5 5 4 9 6 8 10 9 10 12 8 3 5 7 8 8 7 7 7 7 6 6 6 5 5 4 4 5 5 5 6 6 5 4 7 7 7
4 4 5 4 5 9 6 4 7 10 6 5 8 10 11 13 12 8 7 7 7 8 8 8 8 7 6 6 7 6 5 4 4 6 6 5 5 5 5 6 6 7 8 8
7 8 6 8 10 9 6 8 9 6 7 9 9 12 12 12 12 10 9 9 9 9 9 8 8 8 6 7 7 7 6 6 7 7 6 6 5 4 5 6 7 6 6 7
6 5 5 7 10 11 12 10 10 10 12 13 12 12 11 13 13 11 10 9 10 10 9 8 8 8 8 8 8 7 7 8 8 7 6 6 6 5 5 5 6 6 7 6
9 5 6 9 11 10 11 11 12 13 11 11 12 11 12 13 14 12 11 11 12 11 9 9 10 11 10 9 8 8 9 9 8 8 7 6 5 6 5 4 3 5 5 6
6 7 7 11 13 10 11 12 12 12 13 13 12 12 11 13 15 13 13 13 13 13 11 10 11 11 10 9 9 9 10 10 10 8 7 6 5 5 6 6 5 6 4 7
Wind_Direction
54 55 288 252 213 211 238 285 294 283 301 340 336 335 343 350 241 228 216 214 227 235 268 330 258 221 202 210 211 207 201 195 179 176 177 177 187 182 179 183 194 193 194 194
36 321 271 260 207 200 237 286 297 304 341 21 352 355 3 25 15 358 334 304 303 324 337 332 337 335 302 250 231 203 204 198 192 191 181 173 163 165 150 136 119 70 56 31
244 271 313 12 49 62 348 212 274 293 339 19 18 358 12 16 25 29 24 3 329 285 278 296 323 316 317 320 246 179 191 192 198 190 160 126 125 124 138 159 180 333 4 16
313 297 357 28 36 51 334 301 278 310 30 335 23 320 338 352 16 17 8 358 343 340 330 319 330 315 292 196 157 159 159 157 158 160 181 205 205 195 186 181 187 256 331 0
302 311 349 350 323 347 272 20 43 32 118 3 13 273 295 354 12 1 354 352 348 351 345 344 350 349 28 87 145 160 159 156 154 162 178 200 207 197 155 144 176 210 301 18
263 288 260 257 16 30 62 63 49 42 64 342 303 272 278 328 340 330 338 343 345 345 346 347 351 4 18 36 45 195 179 166 164 152 153 172 170 156 148 162 183 193 238 42
329 331 330 307 42 21 56 67 18 357 4 262 288 258 241 208 220 261 279 292 310 318 324 331 337 336 329 345 342 286 243 208 163 139 135 143 149 158 167 176 177 166 135 58
286 304 316 345 150 149 86 128 150 230 245 281 312 258 251 211 222 241 250 259 274 281 289 294 298 305 305 304 301 279 244 204 153 140 137 145 144 151 162 165 160 152 135 114
195 254 317 19 37 121 126 124 154 142 205 278 282 295 298 224 245 245 251 259 264 265 267 270 281 287 288 290 288 276 241 201 161 151 150 155 153 150 150 149 140 133 131 120
169 222 292 280 70 38 90 137 98 119 214 281 292 282 253 236 243 247 250 255 261 264 266 266 265 270 281 287 291 294 241 184 169 164 164 161 160 153 148 143 131 118 103 72
153 176 293 10 47 10 102 95 104 116 156 183 272 274 232 228 234 241 253 257 264 271 271 267 266 260 262 276 283 284 185 135 168 177 166 155 158 155 144 132 111 94 70 52
122 129 237 285 288 280 195 173 150 160 222 192 215 269 260 241 251 249 261 270 275 278 278 269 266 263 253 262 287 290 277 142 167 171 164 158 154 146 131 108 86 76 65 56
139 119 41 338 338 334 120 149 151 132 134 173 195 262 284 272 277 264 262 274 281 287 290 279 270 265 249 238 335 338 8 31 105 142 164 154 146 138 123 105 89 78 76 68
121 134 173 213 228 211 216 192 165 149 178 218 225 252 281 281 276 277 269 272 282 284 284 280 273 220 130 95 65 341 335 348 106 149 174 168 159 143 127 112 98 91 88 78
124 187 219 233 236 211 226 228 195 198 206 215 239 243 260 263 259 261 263 274 280 275 266 244 205 187 157 151 154 257 281 325 49 154 174 174 152 136 125 115 107 99 89 82
131 201 212 260 253 235 254 254 235 224 222 227 248 261 256 254 247 253 256 257 259 256 247 227 202 188 186 192 198 220 256 288 257 159 157 146 136 131 126 122 115 105 94 83
180 168 175 255 280 323 268 244 230 218 213 202 227 245 258 239 237 238 241 239 242 246 236 219 206 198 197 196 195 212 228 251 172 138 130 132 132 128 125 122 117 114 108 95
167 152 168 221 150 228 243 240 204 217 241 222 232 246 229 227 238 241 229 228 239 240 233 220 204 196 197 197 201 212 217 206 171 150 133 125 127 122 118 117 119 116 111 103
158 146 149 162 219 263 286 260 203 208 259 235 224 241 242 225 337 288 241 220 228 229 223 215 200 188 188 198 202 198 202 190 172 160 144 138 138 134 131 132 131 124 118 104
80 113 144 170 213 250 248 253 181 144 268 248 211 231 215 137 246 270 262 225 227 220 208 199 182 171 187 203 187 181 195 196 192 175 157 149 147 144 142 139 131 121 121 112
11 33 198 214 231 260 257 255 131 186 245 256 213 222 195 194 222 234 234 228 217 203 196 183 173 180 197 189 172 184 195 206 196 160 146 145 145 144 140 130 125 127 121 112
234 246 237 204 221 260 266 158 189 224 245 257 234 226 215 225 241 243 238 235 211 194 187 178 178 194 199 181 174 187 200 195 159 144 139 139 139 141 140 130 126 128 126 119
217 207 211 205 225 245 251 225 240 240 251 255 244 239 226 232 242 240 231 223 209 198 190 182 183 193 198 189 183 189 191 161 148 142 142 139 134 130 139 141 138 135 133 132
267 220 221 260 267 263 263 261 263 254 245 253 250 245 229 229 237 232 223 213 206 201 193 184 181 193 204 200 195 192 172 160 152 150 146 142 139 136 141 146 150 150 151 147
241 244 240 257 268 279 276 263 258 263 260 258 258 246 233 231 237 228 218 210 206 203 194 185 190 200 207 197 196 187 171 162 158 156 152 147 146 146 143 137 146 158 163 165
226 218 236 262 264 258 263 260 264 267 267 262 259 260 247 227 234 227 218 211 204 201 192 192 200 205 204 194 195 188 178 170 163 163 162 157 151 148 145 136 106 70 121 157
Height
1503 1508 1513 1510 1508 1508 1509 1511 1514 1506 1496 1497 1498 1497 1493 1488 1488 1489 1490 1491 1492 1493 1496 1499 1501 1502 1504 1506 1507 1508 1509 1510 1511 1512 1514 1515 1517 1518 1520 1523 1525 1525 1526 1527
1510 1511 1504 1500 1502 1505 1508 1512 1511 1503 1496 1497 1499 1499 1496 1493 1493 1493 1494 1495 1495 1496 1498 1499 1500 1502 1503 1504 1505 1506 1507 1508 1509 1510 1510 1511 1512 1513 1515 1517 1519 1521 1522 1522
1510 1507 1501 1500 1501 1505 1506 1509 1508 1506 1501 1500 1501 1506 1503 1500 1497 1496 1496 1496 1495 1496 1496 1497 1498 1499 1501 1501 1502 1504 1505 1506 1507 1507 1508 1507 1508 1508 1509 1511 1514 1516 1517 1517
1507 1503 1502 1503 1503 1503 1511 1503 1502 1503 1509 1516 1511 1524 1512 1509 1504 1501 1499 1497 1496 1496 1495 1495 1495 1496 1497 1496 1498 1499 1500 1501 1502 1502 1503 1503 1502 1502 1504 1506 1509 1511 1512 1513
1509 1504 1504 1505 1504 1502 1504 1502 1504 1506 1510 1517 1517 1522 1520 1512 1510 1507 1503 1500 1497 1496 1495 1494 1493 1493 1493 1492 1493 1493 1494 1495 1495 1495 1496 1497 1496 1497 1499 1502 1505 1506 1507 1508
1506 1502 1502 1502 1501 1501 1502 1507 1512 1518 1523 1530 1520 1525 1525 1515 1512 1509 1505 1502 1498 1496 1495 1493 1492 1492 1491 1490 1490 1490 1490 1489 1490 1489 1489 1490 1490 1492 1494 1498 1500 1502 1503 1503
1511 1505 1502 1500 1503 1505 1507 1520 1536 1537 1542 1537 1522 1523 1522 1510 1509 1508 1506 1502 1499 1497 1495 1493 1492 1491 1489 1488 1487 1487 1487 1486 1486 1485 1485 1487 1487 1490 1492 1495 1497 1498 1499 1500
1521 1521 1505 1501 1503 1508 1512 1519 1538 1545 1547 1538 1525 1524 1516 1507 1507 1506 1504 1501 1499 1497 1495 1493 1491 1490 1488 1487 1485 1485 1484 1483 1482 1483 1484 1486 1486 1489 1492 1494 1494 1495 1495 1496
1521 1519 1504 1503 1503 1506 1514 1521 1522 1536 1538 1543 1534 1523 1511 1507 1506 1504 1502 1500 1497 1495 1493 1492 1490 1488 1487 1485 1484 1482 1481 1481 1480 1481 1483 1485 1486 1488 1490 1491 1492 1492 1493 1493
1510 1516 1507 1505 1505 1510 1512 1519 1530 1536 1541 1547 1537 1528 1520 1507 1504 1501 1499 1497 1494 1493 1491 1489 1487 1486 1485 1484 1482 1480 1480 1480 1479 1479 1481 1483 1485 1487 1488 1490 1490 1490 1490 1490
1506 1516 1513 1510 1511 1512 1517 1523 1530 1538 1538 1546 1547 1533 1506 1501 1498 1497 1495 1493 1491 1490 1488 1486 1485 1483 1482 1481 1480 1479 1478 1478 1479 1478 1479 1482 1484 1486 1487 1488 1488 1488 1489 1490
1508 1517 1523 1517 1511 1510 1511 1517 1526 1533 1535 1541 1544 1530 1496 1496 1493 1493 1492 1490 1488 1487 1484 1482 1481 1480 1479 1478 1478 1478 1478 1477 1478 1479 1480 1481 1483 1484 1485 1486 1486 1487 1488 1489
1507 1518 1529 1527 1523 1513 1513 1516 1519 1527 1534 1542 1543 1524 1493 1492 1491 1490 1488 1486 1484 1483 1481 1479 1477 1477 1477 1477 1477 1477 1477 1478 1478 1478 1479 1481 1482 1483 1484 1485 1486 1486 1487 1488
1501 1513 1521 1525 1520 1512 1511 1513 1518 1524 1532 1534 1528 1512 1495 1490 1489 1485 1484 1482 1481 1479 1477 1476 1474 1474 1475 1475 1476 1478 1478 1478 1478 1478 1479 1480 1481 1482 1483 1484 1485 1487 1488 1488
1500 1509 1510 1509 1506 1506 1506 1506 1510 1515 1514 1516 1508 1504 1491 1484 1483 1481 1480 1479 1478 1476 1475 1474 1473 1473 1474 1475 1476 1477 1478 1478 1477 1477 1478 1480 1481 1482 1483 1485 1486 1487 1488 1489
1500 1505 1507 1507 1502 1503 1503 1499 1499 1502 1502 1503 1499 1494 1479 1478 1478 1477 1476 1475 1474 1473 1473 1472 1471 1472 1473 1474 1475 1476 1476 1476 1476 1476 1477 1479 1480 1482 1483 1485 1486 1488 1489 1490
1503 1507 1512 1514 1503 1502 1505 1492 1490 1492 1490 1491 1491 1482 1474 1476 1474 1472 1472 1471 1471 1470 1470 1470 1470 1470 1471 1472 1474 1474 1475 1474 1475 1475 1476 1478 1479 1481 1483 1485 1487 1488 1490 1491
1502 1508 1514 1515 1510 1514 1496 1479 1480 1482 1479 1478 1476 1472 1471 1469 1468 1468 1468 1468 1467 1467 1467 1467 1468 1469 1470 1471 1472 1472 1472 1473 1473 1475 1476 1477 1479 1481 1483 1485 1487 1489 1490 1491
1496 1504 1513 1518 1515 1504 1488 1476 1474 1478 1476 1468 1469 1467 1466 1467 1467 1465 1464 1463 1463 1464 1464 1465 1465 1466 1468 1469 1469 1470 1470 1470 1472 1473 1475 1477 1478 1480 1482 1484 1486 1488 1490 1492
1497 1500 1508 1514 1511 1507 1485 1468 1467 1472 1476 1463 1462 1462 1463 1465 1470 1463 1459 1459 1459 1460 1461 1462 1463 1464 1465 1466 1467 1467 1468 1469 1470 1472 1474 1476 1478 1480 1481 1483 1485 1487 1489 1491
1502 1504 1507 1509 1508 1493 1472 1466 1468 1479 1474 1459 1458 1457 1458 1459 1458 1456 1455 1456 1456 1457 1458 1459 1460 1461 1462 1463 1464 1464 1465 1467 1469 1471 1473 1475 1477 1478 1480 1482 1484 1486 1488 1490
1501 1504 1504 1506 1506 1494 1466 1466 1469 1465 1457 1456 1454 1453 1453 1452 1451 1452 1452 1452 1453 1453 1455 1456 1457 1458 1459 1460 1461 1462 1463 1465 1467 1469 1471 1473 1475 1477 1479 1480 1482 1485 1487 1489
1496 1493 1492 1492 1485 1469 1464 1462 1459 1457 1455 1452 1450 1449 1448 1447 1447 1447 1447 1448 1449 1450 1451 1453 1454 1455 1456 1457 1458 1459 1461 1463 1465 1467 1470 1472 1473 1475 1477 1479 1481 1483 1486 1488
1487 1482 1484 1481 1471 1463 1458 1456 1454 1452 1449 1447 1445 1443 1443 1442 1441 1442 1442 1443 1444 1446 1448 1449 1451 1452 1453 1454 1455 1457 1459 1461 1463 1465 1467 1469 1471 1473 1475 1477 1479 1482 1484 1486
1482 1479 1479 1475 1464 1457 1452 1450 1447 1445 1443 1441 1439 1438 1436 1436 1435 1435 1436 1437 1439 1441 1443 1445 1446 1448 1449 1451 1452 1454 1455 1457 1460 1462 1464 1466 1468 1470 1473 1475 1477 1480 1482 1485
1475 1475 1474 1466 1456 1453 1447 1443 1441 1439 1436 1435 1433 1431 1430 1429 1428 1428 1429 1431 1433 1435 1438 1440 1442 1444 1446 1447 1449 1450 1452 1454 1456 1458 1460 1463 1465 1468 1470 1472 1475 1477 1480 1483